Regional Weather Roundup
Issued by NWS

Home | Current Version | Previous Version | Text Only | Print | Product List | Glossary Off
Versions: 1 2 3 4 5 6 7 8 9 10 11 12 13 14 15 16 17 18 19 20 21 22 23 24 25 26 27 28 29 30 31 32 33 34 35 36 37 38 39 40 41 42 43 44 45 46 47 48 49 50

000
ASUS45 KPSR 281700
RWRAZ

PRELIMINARY ARIZONA REGIONAL HOURLY WEATHER ROUNDUP
NATIONAL WEATHER SERVICE PHOENIX AZ
1000 AM MST WED JAN 28 2015

NOTE: FAIR INDICATES FEW OR NO CLOUDS BELOW 12,000 FEET WITH NO
SIGNIFICANT WEATHER AND/OR OBSTRUCTIONS TO VISIBILITY.

AZZ001>003-036-281800-
NORTHWEST ARIZONA

CITY           SKY/WX    TMP DP  RH WIND       PRES   REMARKS
KINGMAN          N/A     46  44  93 CALM      30.27S
$$

AZZ004>008-015-016-018-281800-
NORTH CENTRAL ARIZONA

CITY           SKY/WX    TMP DP  RH WIND       PRES   REMARKS
GRAND CANYON   MOSUNNY   38  34  85 CALM      30.32S
PRESCOTT       PTSUNNY   46  40  79 CALM      30.29S
FLAGSTAFF      NOT AVBL
$$

AZZ009>014-017-281800-
NORTHEAST ARIZONA

CITY           SKY/WX    TMP DP  RH WIND       PRES   REMARKS
WINSLOW        NOT AVBL
SAINT JOHNS    SUNNY     48  37  65 NE3       30.30S
WINDOW ROCK    MOSUNNY   42  33  70 CALM      30.32S
$$

AZZ023-281800-
GREATER PHOENIX AREA

CITY           SKY/WX    TMP DP  RH WIND       PRES   REMARKS
PHOENIX        PTSUNNY   62  49  62 E5        30.18R
GLENDALE       PTSUNNY   59  50  72 NE3       30.20S
LUKE AFB       NOT AVBL
DEER VALLEY    SUNNY     60  48  64 CALM      30.18S
SCOTTSDALE     SUNNY     59  49  69 CALM      30.19S
MESA-FALCON    PTSUNNY   57  46  67 N6        30.18R
CHANDLER       PTSUNNY   55  52  88 CALM      30.19S
$$

AZZ027-028-281800-
SOUTHWEST MARICOPA COUNTY AND PINAL COUNTY

CITY           SKY/WX    TMP DP  RH WIND       PRES   REMARKS
CASA GRANDE    SUNNY     54  52  94 CALM      30.19R
GILA BEND      PTSUNNY   61  55  78 E1        30.19R
$$

AZZ503-504-507>509-281800-
SOUTHEAST ARIZONA

CITY           SKY/WX    TMP DP  RH WIND       PRES   REMARKS
TUCSON         SUNNY     58  48  69 SE6       30.22R
DAVIS-MONTHAN  SUNNY     60  49  65 VRB3      30.19S
RYAN FIELD       N/A     57  50  77 E3        30.22R
NOGALES        MOSUNNY   55  47  74 VRB3      30.21F
SIERRA VISTA   PTSUNNY   61  46  59 CALM      30.26S
SAFFORD        SUNNY     55  38  52 SE3       30.23S
$$

AZZ020-021-025-026-031-281800-
SOUTHWEST ARIZONA

CITY           SKY/WX    TMP DP  RH WIND       PRES   REMARKS
YUMA           PTSUNNY   63  54  72 N6        30.18F
$$

CAZ031-033-041-043-047-048-061-281800-
SOUTHERN CALIFORNIA

CITY           SKY/WX    TMP DP  RH WIND       PRES   REMARKS
DOWNTOWN L.A.  PTSUNNY   62  47  57 CALM      30.16R
L.A. AIRPORT   PTSUNNY   61  48  62 VRB6      30.16S
SAN DIEGO      CLOUDY    60  47  61 CALM      30.14R
BURBANK        PTSUNNY   60  41  49 CALM      30.16R
ONTARIO        CLOUDY    58  48  69 W3        30.16S
RIVERSIDE      PTSUNNY   62  47  57 E5        30.17S
PALM SPRINGS   MOSUNNY   63  46  54 NW3       30.22R
EL CENTRO NAS  PTSUNNY   57  51  80 W3        30.20S
IMPERIAL       MOSUNNY   56  51  84 CALM      30.19S
BLYTHE         MOSUNNY   57  54  89 CALM      30.21R
$$

NVZ020-UTZ003-281800-
SOUTHERN NEVADA-UTAH

CITY           SKY/WX    TMP DP  RH WIND       PRES   REMARKS
LAS VEGAS      NOT AVBL
SALT LAKE CITY PTSUNNY   43  39  86 N6        30.29R
$$

NMZ009-TXZ055-281800-
NEW MEXICO-WEST TEXAS

CITY           SKY/WX    TMP DP  RH WIND       PRES   REMARKS
ALBUQUERQUE    MOSUNNY   50  36  58 CALM      30.28F
EL PASO        MOSUNNY   55  41  59 N3        30.25R
$$


........................KEY........................
SKY/WX - SKY CONDITION/WEATHER
TMP    - TEMPERATURE IN FAHRENHEIT
DP     - DEW POINT IN FAHRENHEIT
RH     - RELATIVE HUMIDITY IN PERCENT
WIND   - DIRECTION AND SPEED IN MILES PER HOUR (MPH)
VRB    - VARIABLE WIND DIRECTION
PRES   - MEAN SEA LEVEL PRESSURE IN INCHES OF MERCURY
         F - FALLING PRESSURE   R - RISING PRESSURE
         S - STEADY PRESSURE
VSB    - VISIBILITY IN MILES
HX     - HEAT INDEX IN FAHRENHEIT
WCI    - WIND CHILL INDEX IN FAHRENHEIT
TC     - TEMPERATURE IN CELSIUS WHICH IS ALSO KNOWN AS
         TEMPERATURE IN CENTIGRADE
AFB    - AIR FORCE BASE
         LUKE AFB IS LUKE AIR FORCE BASE
         DAVIS-MONTHAN IS DAVIS-MONTHAN AIR FORCE BASE
NAS    - NAVAL AIR STATION
         EL CENTRO NAS IS EL CENTRO NAVAL AIR STATION
N/A    - NOT AVAILABLE



USA.gov is the U.S. government's official web portal to all federal, state and local government web resources and services.